User: anonymous
Location: Clinton NY
(43.0598°N, 75.3602°W)
Time: 17:38:46
(UTC-04:00)
Language:

Iridium 42 - Orbit

View from above orbital plane
View from above orbital plane
View from above satellite
View from above satellite

Ground track
Ground track

The orbit data is extracted from the following two-line orbital elements,

1 25077U 97077A   14212.22939757  .00000238  00000-0  77744-4 0  8945
2 25077 086.3967 101.7256 0002196 099.1603 260.9842 14.34220071871393
Epoch (UTC): 31 July 2014 05:30:19
Eccentricity: 0.0002196
inclination: 86.3967°
perigee height: 776 km
apogee height: 779 km
right ascension of ascending node: 101.7256°
argument of perigee: 99.1603°
revolutions per day: 14.34220071
mean anomaly at epoch: 260.9842°
orbit number at epoch: 87139

The dashed part of the orbit path shows where the satellite is in the earth's shadow,  

DLR